FW8044 Weather Reports


Display with metric or nautical units.
time (UTC)temp
F
wind
direction
speed
MPH
gust
MPH
rain 1hr
in
rain 24hr
in
rain mn
in
humidity
%
barometer
mb
20260906170539 82 141 3.0 16.0 0.00 0.00 0.00 78 1018.0
20260906170038 82 159 6.0 9.0 0.00 0.00 0.00 77 1018.1
20260906165535 82 108 1.0 6.0 0.00 0.00 0.00 78 1017.9
20260906165029 81 133 5.0 9.0 0.00 0.00 0.00 78 1018.1
20260906164529 82 112 6.0 8.0 0.00 0.00 0.00 78 1018.2
20260906164025 82 56 3.0 6.0 0.00 0.00 0.00 77 1018.1
20260906163520 83 124 4.0 7.0 0.00 0.00 0.00 76 1018.0
20260906163016 83 113 1.0 8.0 0.00 0.00 0.00 76 1018.0
20260906162512 82 38 2.0 10.0 0.00 0.00 0.00 77 1018.3
20260906162008 83 131 9.0 11.0 0.00 0.00 0.00 75 1018.2
20260906161502 82 138 8.0 13.0 0.00 0.00 0.00 76 1018.3
20260906161001 82 141 7.0 16.0 0.00 0.00 0.00 77 1018.3
20260906160454 82 255 3.0 14.0 0.00 0.00 0.00 77 1018.2
20260906155953 82 115 5.0 10.0 0.00 0.00 0.00 77 1018.4
20260906155451 81 139 5.0 9.0 0.00 0.00 0.00 78 1018.5
20260906154948 81 246 3.0 17.0 0.00 0.00 0.00 79 1018.5
20260906154443 81 133 8.0 10.0 0.00 0.00 0.00 78 1018.3
20260906153941 80 114 1.0 2.0 0.00 0.00 0.00 82 1018.5
20260906153440 80 246 2.0 8.0 0.00 0.00 0.00 80 1018.3
20260906152935 80 109 3.0 6.0 0.00 0.00 0.00 80 1018.4
20260906152430 79 314 1.0 3.0 0.00 0.00 0.00 83 1018.6
20260906151929 78 161 1.0 7.0 0.00 0.00 0.00 85 1018.6
20260906151425 78 152 5.0 6.0 0.00 0.00 0.00 83 1018.6
20260906150920 78 107 6.0 9.0 0.00 0.00 0.00 83 1018.5
20260906150415 78 118 4.0 7.0 0.00 0.00 0.00 83 1018.3
20260906145914 77 128 5.0 8.0 0.00 0.00 0.00 85 1018.5
20260906145413 77 144 3.0 6.0 0.00 0.00 0.00 85 1018.7
20260906144908 77 147 4.0 6.0 0.00 0.00 0.00 85 1018.4
20260906144403 77 112 5.0 6.0 0.00 0.00 0.00 86 1018.6
20260906143858 77 137 2.0 6.0 0.00 0.00 0.00 85 1018.6
20260906143354 77 126 5.0 7.0 0.00 0.00 0.00 86 1018.7
20260906142850 77 169 4.0 6.0 0.00 0.00 0.00 86 1018.7
20260906142344 76 124 3.0 5.0 0.00 0.00 0.00 87 1018.7
20260906141844 76 105 3.0 5.0 0.00 0.00 0.00 87 1018.3
20260906141339 76 134 2.0 6.0 0.00 0.00 0.00 88 1018.6
20260906140838 75 135 3.0 7.0 0.00 0.00 0.00 89 1018.8
20260906140333 75 154 4.0 5.0 0.00 0.00 0.00 90 1018.5
20260906135830 74 152 1.0 5.0 0.00 0.00 0.00 91 1018.7
20260906135320 74 170 5.0 7.0 0.00 0.00 0.00 91 1018.6
20260906134815 74 151 3.0 5.0 0.00 0.00 0.00 92 1018.8
20260906134310 74 151 5.0 6.0 0.00 0.00 0.00 92 1018.8
20260906133806 73 237 2.0 3.0 0.00 0.00 0.00 92 1018.6
20260906133301 73 147 2.0 6.0 0.00 0.00 0.00 92 1018.4
20260906132757 73 148 3.0 7.0 0.00 0.00 0.00 92 1018.4
20260906132252 73 141 3.0 5.0 0.00 0.00 0.00 93 1018.4
20260906131748 73 199 3.0 6.0 0.00 0.00 0.00 93 1018.3
20260906131248 73 120 3.0 5.0 0.00 0.00 0.00 93 1018.8
20260906130743 73 117 1.0 6.0 0.00 0.00 0.00 93 1018.7
20260906130238 73 146 2.0 5.0 0.00 0.00 0.00 93 1019.0
20260906125737 73 137 2.0 6.0 0.00 0.00 0.00 93 1018.7
20260906125235 73 147 3.0 5.0 0.00 0.00 0.00 93 1018.7
20260906124730 73 154 1.0 5.0 0.00 0.00 0.00 94 1018.4
20260906124226 72 228 1.0 2.0 0.00 0.00 0.00 94 1018.3
20260906123724 72 123 3.0 5.0 0.00 0.00 0.00 94 1018.2
20260906123220 72 150 1.0 3.0 0.00 0.00 0.00 95 1018.3
20260906122719 72 169 1.0 3.0 0.00 0.00 0.00 95 1018.0
20260906122214 72 137 2.0 3.0 0.00 0.00 0.00 95 1018.1
20260906121711 72 114 3.0 5.0 0.00 0.00 0.00 95 1018.0
20260906121207 72 157 2.0 3.0 0.00 0.00 0.00 95 1017.8
20260906120703 72 205 2.0 3.0 0.00 0.00 0.00 95 1018.0
20260906120159 72 113 3.0 5.0 0.00 0.00 0.00 95 1017.8
20260906115654 72 240 0.0 3.0 0.00 0.00 0.00 95 1017.7
20260906115149 72 56 2.0 3.0 0.00 0.00 0.00 95 1017.8
20260906114648 72 184 0.0 1.0 0.00 0.00 0.00 95 1017.6
20260906114143 72 178 2.0 6.0 0.00 0.00 0.00 95 1017.5
20260906113638 72 103 0.0 3.0 0.00 0.00 0.00 95 1017.1
20260906113138 72 165 1.0 3.0 0.00 0.00 0.00 95 1017.2
20260906112637 72 128 1.0 5.0 0.00 0.00 0.00 95 1017.2
20260906112135 72 177 0.0 5.0 0.00 0.00 0.00 95 1017.3
20260906111633 72 85 1.0 5.0 0.00 0.00 0.00 95 1017.3
20260906111128 72 89 1.0 5.0 0.00 0.00 0.00 95 1017.5
20260906110623 72 72 3.0 3.0 0.00 0.00 0.00 94 1017.3
20260906110118 72 263 0.0 2.0 0.00 0.00 0.00 94 1017.5
20260906105612 72 132 1.0 5.0 0.00 0.00 0.00 94 1017.3
20260906105109 72 129 1.0 5.0 0.00 0.00 0.00 94 1017.6
20260906104608 72 93 1.0 3.0 0.00 0.00 0.00 94 1017.6
20260906104102 72 137 1.0 2.0 0.00 0.00 0.00 94 1017.6
20260906103600 73 131 1.0 3.0 0.00 0.00 0.00 94 1017.5
20260906103056 73 147 1.0 2.0 0.00 0.00 0.00 94 1017.5
20260906102555 73 81 2.0 3.0 0.00 0.00 0.00 94 1017.7
20260906102050 73 117 1.0 2.0 0.00 0.00 0.00 94 1017.6
20260906101545 73 115 2.0 3.0 0.00 0.00 0.00 94 1017.6
20260906101039 73 121 1.0 3.0 0.00 0.00 0.00 94 1017.8
20260906100536 73 99 1.0 5.0 0.00 0.00 0.00 93 1017.5
20260906100036 73 97 2.0 3.0 0.00 0.00 0.00 93 1017.5
20260906095530 73 112 1.0 2.0 0.00 0.00 0.00 93 1017.5
20260906095026 73 159 1.0 2.0 0.00 0.00 0.00 93 1017.4
20260906094525 73 99 1.0 3.0 0.00 0.00 0.00 93 1017.5
20260906094021 73 118 2.0 2.0 0.00 0.00 0.00 93 1017.4
20260906093517 73 146 1.0 6.0 0.00 0.00 0.00 93 1017.3
20260906093016 73 34 1.0 5.0 0.00 0.00 0.00 93 1017.3
20260906092511 74 181 1.0 5.0 0.00 0.00 0.00 93 1017.4
20260906092006 74 121 0.0 5.0 0.00 0.00 0.00 93 1017.3
20260906091502 74 107 1.0 6.0 0.00 0.00 0.00 92 1017.3
20260906090959 74 62 2.0 3.0 0.00 0.00 0.00 92 1017.1
20260906090453 74 209 3.0 7.0 0.00 0.00 0.00 92 1017.2
20260906085953 74 111 1.0 5.0 0.00 0.00 0.00 92 1016.9
20260906085452 74 188 3.0 5.0 0.00 0.00 0.00 92 1016.8
20260906084951 74 193 1.0 6.0 0.00 0.00 0.00 92 1016.8
20260906084446 74 172 1.0 3.0 0.00 0.00 0.00 92 1016.7
20260906083945 74 285 1.0 3.0 0.00 0.00 0.00 92 1016.7
20260906083441 74 248 0.0 5.0 0.00 0.00 0.00 92 1016.7
20260906082940 74 115 4.0 5.0 0.00 0.00 0.00 92 1016.8
20260906082436 74 50 1.0 5.0 0.00 0.00 0.00 92 1016.9
20260906081931 75 251 1.0 6.0 0.00 0.00 0.00 92 1016.9
20260906081427 75 172 3.0 9.0 0.00 0.00 0.00 92 1016.6
20260906080923 75 148 4.0 7.0 0.00 0.00 0.00 92 1016.6
20260906080420 75 274 1.0 1.0 0.00 0.00 0.00 92 1016.8
20260906075919 75 103 1.0 6.0 0.00 0.00 0.00 92 1016.8
20260906075414 75 103 1.0 2.0 0.00 0.00 0.00 92 1016.4
20260906074909 75 135 3.0 5.0 0.00 0.00 0.00 92 1016.6
20260906074409 75 81 2.0 3.0 0.00 0.00 0.00 92 1016.9
20260906073908 75 73 2.0 3.0 0.00 0.00 0.00 91 1016.9
20260906073403 75 187 1.0 6.0 0.00 0.00 0.00 92 1016.8
20260906072859 75 94 3.0 6.0 0.00 0.00 0.00 92 1017.0
20260906072354 76 81 3.0 5.0 0.00 0.00 0.00 92 1017.1
20260906071850 76 111 2.0 3.0 0.00 0.00 0.00 92 1016.8
20260906071345 76 106 2.0 3.0 0.00 0.00 0.00 92 1016.7
20260906070841 76 103 2.0 2.0 0.00 0.00 0.00 92 1016.7
20260906070337 76 132 2.0 3.0 0.00 0.00 0.00 91 1016.7
20260906065832 77 103 3.0 6.0 0.00 0.00 0.00 91 1016.6
20260906065327 77 48 3.0 6.0 0.00 0.00 0.00 90 1016.7
20260906064822 77 137 3.0 6.0 0.00 0.00 0.00 90 1017.0
20260906064319 77 168 3.0 6.0 0.00 0.00 0.00 90 1016.8
20260906063813 77 61 1.0 3.0 0.00 0.00 0.00 91 1016.8
20260906063309 77 133 3.0 7.0 0.00 0.00 0.00 92 1016.9
20260906062803 77 109 2.0 6.0 0.00 0.00 0.00 93 1016.9
20260906062305 77 134 3.0 5.0 0.00 0.00 0.00 94 1016.8
20260906061758 77 146 1.0 5.0 0.00 0.00 0.00 94 1017.1
20260906061255 78 172 1.0 2.0 0.00 0.00 0.00 94 1016.7
20260906060749 78 100 1.0 3.0 0.00 0.00 0.00 94 1016.9
20260906060247 78 76 1.0 2.0 0.00 0.00 0.00 93 1016.8
20260906055742 78 117 1.0 5.0 0.00 0.00 0.00 93 1016.8
20260906055238 78 72 3.0 3.0 0.00 0.00 0.00 93 1016.9
20260906054733 78 181 1.0 3.0 0.00 0.00 0.00 93 1016.8
20260906054228 78 114 1.0 2.0 0.00 0.00 0.00 93 1017.0
20260906053725 78 94 1.0 3.0 0.00 0.00 0.00 92 1016.7
20260906053220 78 135 2.0 5.0 0.00 0.00 0.00 92 1016.8
20260906052715 78 200 0.0 1.0 0.00 0.00 0.00 92 1016.9
20260906052211 78 123 5.0 7.0 0.00 0.00 0.00 92 1016.6
20260906051708 79 64 0.0 2.0 0.00 0.00 0.00 91 1016.7
20260906051207 79 354 1.0 2.0 0.00 0.00 0.00 91 1016.8
20260906050703 79 1 1.0 2.0 0.00 0.00 0.00 90 1016.7
20260906050158 79 60 1.0 5.0 0.00 0.00 0.00 90 1016.7
20260906045656 79 116 1.0 2.0 0.00 0.00 0.00 90 1016.6
20260906045151 79 141 0.0 3.0 0.00 0.00 0.00 90 1016.9
20260906044647 79 78 1.0 2.0 0.00 0.00 0.00 90 1016.6
20260906044142 79 143 3.0 3.0 0.00 0.00 0.00 89 1016.5
20260906043639 80 53 0.0 3.0 0.00 0.00 0.00 89 1016.5
20260906043134 80 0 0.0 1.0 0.00 0.00 0.00 89 1016.5
20260906042633 80 98 1.0 2.0 0.00 0.00 0.00 89 1016.7
20260906042127 80 320 1.0 1.0 0.00 0.00 0.00 88 1016.4
20260906041623 80 75 1.0 2.0 0.00 0.00 0.00 88 1016.4
20260906041118 80 39 0.0 1.0 0.00 0.00 0.00 88 1016.3
20260906040614 80 330 0.0 1.0 0.00 0.00 0.00 87 1016.5
20260906040109 80 56 1.0 1.0 0.00 0.00 0.00 87 1016.5
20260906035604 81 322 1.0 3.0 0.00 0.00 0.00 87 1016.5
20260906035100 81 269 1.0 2.0 0.00 0.00 0.00 86 1016.2
20260906034600 81 314 0.0 2.0 0.00 0.00 0.00 86 1016.3
20260906034054 81 310 0.0 2.0 0.00 0.00 0.00 86 1016.1
20260906033550 81 55 1.0 2.0 0.00 0.00 0.00 85 1016.3
20260906033045 81 19 0.0 2.0 0.00 0.00 0.00 85 1016.1
20260906032542 81 317 1.0 1.0 0.00 0.00 0.00 85 1016.3
20260906032036 81 20 0.0 1.0 0.00 0.00 0.00 85 1016.3
20260906031532 82 348 1.0 1.0 0.00 0.00 0.00 84 1016.2
20260906031028 82 245 0.0 1.0 0.00 0.00 0.00 84 1016.5
20260906030527 82 338 0.0 1.0 0.00 0.00 0.00 84 1016.1
20260906030026 82 83 1.0 2.0 0.00 0.00 0.00 84 1016.0
20260906025526 82 39 1.0 2.0 0.00 0.00 0.00 84 1015.8
20260906025025 82 202 0.0 2.0 0.00 0.00 0.00 83 1015.7
20260906024520 82 36 1.0 2.0 0.00 0.00 0.00 83 1015.8
20260906024020 82 349 1.0 1.0 0.00 0.00 0.00 83 1016.0
20260906023516 82 198 0.0 1.0 0.00 0.00 0.00 83 1015.7
20260906023010 82 113 1.0 1.0 0.00 0.00 0.00 82 1015.6
20260906022505 83 344 1.0 1.0 0.00 0.00 0.00 82 1015.4
20260906021955 83 53 1.0 1.0 0.00 0.00 0.00 82 1015.4
20260906021450 83 7 1.0 1.0 0.00 0.00 0.00 82 1015.5
20260906020944 83 64 1.0 2.0 0.00 0.00 0.00 81 1015.2
20260906020439 83 357 1.0 2.0 0.00 0.00 0.00 81 1015.3
20260906015933 83 242 0.0 3.0 0.00 0.00 0.00 81 1015.3
20260906015432 84 343 1.0 1.0 0.00 0.00 0.00 81 1015.1
20260906014926 84 330 1.0 2.0 0.00 0.00 0.00 81 1015.0
20260906014426 84 20 1.0 2.0 0.00 0.00 0.00 80 1014.9
20260906013922 84 21 2.0 3.0 0.00 0.00 0.00 80 1014.9
20260906013418 84 28 1.0 3.0 0.00 0.00 0.00 80 1014.9
20260906012913 84 33 1.0 1.0 0.00 0.00 0.00 80 1014.8
20260906012408 84 343 1.0 2.0 0.00 0.00 0.00 79 1014.9
20260906011907 84 2 1.0 2.0 0.00 0.00 0.00 79 1015.0
20260906011403 85 45 2.0 2.0 0.00 0.00 0.00 79 1014.8
20260906010858 85 337 0.0 1.0 0.00 0.00 0.00 79 1014.8
20260906010354 85 285 1.0 1.0 0.00 0.00 0.00 78 1014.9
20260906005850 85 10 1.0 3.0 0.00 0.00 0.00 78 1014.8
20260906005349 85 323 1.0 5.0 0.00 0.00 0.00 77 1014.6
20260906004847 86 351 1.0 1.0 0.00 0.00 0.00 77 1014.7
20260906004342 86 218 1.0 1.0 0.00 0.00 0.00 76 1014.5
20260906003837 86 189 1.0 5.0 0.00 0.00 0.00 76 1014.8
20260906003332 86 49 1.0 3.0 0.00 0.00 0.00 75 1014.6
20260906002828 86 349 2.0 6.0 0.00 0.00 0.00 75 1014.8
20260906002327 87 286 0.0 3.0 0.00 0.00 0.00 75 1014.6
20260906001823 87 306 1.0 3.0 0.00 0.00 0.00 74 1014.8
20260906001318 87 132 3.0 9.0 0.00 0.00 0.00 74 1014.5
20260906000813 87 301 1.0 5.0 0.00 0.00 0.00 74 1014.6
20260906000308 88 124 1.0 3.0 0.00 0.00 0.00 73 1014.7
20260905235803 88 15 3.0 7.0 0.00 0.00 0.00 72 1014.7
20260905235306 88 213 1.0 5.0 0.00 0.00 0.00 71 1014.4
20260905234758 88 208 2.0 11.0 0.00 0.00 0.00 70 1014.3
20260905234253 88 235 2.0 7.0 0.00 0.00 0.00 70 1014.5
20260905233748 89 58 2.0 11.0 0.00 0.00 0.00 69 1014.5
20260905233248 89 266 1.0 3.0 0.00 0.00 0.00 70 1014.5
20260905232747 89 56 1.0 7.0 0.00 0.00 0.00 69 1014.6
20260905232243 89 58 4.0 9.0 0.00 0.00 0.00 67 1014.6
20260905231739 90 171 2.0 11.0 0.00 0.00 0.00 67 1014.7
20260905231234 90 93 2.0 14.0 0.00 0.00 0.00 67 1014.5
20260905230730 90 89 2.0 3.0 0.00 0.00 0.00 66 1014.5
20260905230228 90 118 1.0 5.0 0.00 0.00 0.00 66 1014.4
20260905225728 91 56 1.0 2.0 0.00 0.00 0.00 65 1014.6
20260905225223 91 212 1.0 7.0 0.00 0.00 0.00 64 1014.6
20260905224722 91 238 2.0 3.0 0.00 0.00 0.00 63 1014.6
20260905224218 91 167 2.0 3.0 0.00 0.00 0.00 63 1014.4
20260905223714 91 238 1.0 5.0 0.00 0.00 0.00 63 1014.6
20260905223210 92 83 1.0 8.0 0.00 0.00 0.00 63 1014.3
20260905222706 92 336 0.0 2.0 0.00 0.00 0.00 62 1014.3
20260905222205 93 110 1.0 2.0 0.00 0.00 0.00 62 1014.3
20260905221701 92 336 1.0 3.0 0.00 0.00 0.00 63 1014.4
20260905221158 93 323 1.0 3.0 0.00 0.00 0.00 62 1014.3
20260905220653 93 116 5.0 7.0 0.00 0.00 0.00 61 1014.5
20260905220149 92 295 3.0 5.0 0.00 0.00 0.00 62 1014.3
20260905215648 91 73 2.0 3.0 0.00 0.00 0.00 64 1014.5
20260905215144 91 148 2.0 3.0 0.00 0.00 0.00 66 1014.4
20260905214640 92 148 3.0 3.0 0.00 0.00 0.00 63 1014.5
20260905214135 92 149 1.0 3.0 0.00 0.00 0.00 63 1014.4
20260905213630 92 49 1.0 3.0 0.00 0.00 0.00 63 1014.5
20260905213125 92 288 3.0 3.0 0.00 0.00 0.00 62 1014.7
20260905212621 92 15 2.0 3.0 0.00 0.00 0.00 63 1014.4
20260905212120 91 10 1.0 3.0 0.00 0.00 0.00 64 1014.7
20260905211615 91 74 1.0 3.0 0.00 0.00 0.00 64 1014.5
20260905211111 92 161 1.0 3.0 0.00 0.00 0.00 62 1014.5
20260905210607 92 51 1.0 8.0 0.00 0.00 0.00 62 1014.5
20260905205601 92 229 1.0 6.0 0.00 0.00 0.00 63 1014.1
20260905205100 92 353 3.0 6.0 0.00 0.00 0.00 63 1014.4
20260905204555 92 78 6.0 10.0 0.00 0.00 0.00 62 1014.4
20260905204050 92 64 2.0 3.0 0.00 0.00 0.00 62 1014.2
20260905203550 93 106 2.0 6.0 0.00 0.00 0.00 62 1014.3
20260905203045 93 167 2.0 8.0 0.00 0.00 0.00 60 1014.6
20260905202541 93 56 2.0 2.0 0.00 0.00 0.00 61 1014.6
20260905202036 93 70 4.0 6.0 0.00 0.00 0.00 61 1014.6
20260905201532 93 115 3.0 8.0 0.00 0.00 0.00 61 1014.7
20260905201031 93 236 1.0 5.0 0.00 0.00 0.00 63 1014.8
20260905200527 92 59 1.0 2.0 0.00 0.00 0.00 65 1014.8
20260905200026 93 239 0.0 8.0 0.00 0.00 0.00 64 1014.8
20260905195520 95 33 3.0 7.0 0.00 0.00 0.00 60 1014.9
20260905195016 94 54 1.0 5.0 0.00 0.00 0.00 62 1015.0
20260905194510 93 146 1.0 3.0 0.00 0.00 0.00 62 1014.8
20260905194009 95 133 1.0 2.0 0.00 0.00 0.00 59 1015.2
20260905193504 95 20 1.0 5.0 0.00 0.00 0.00 60 1015.2
20260905192959 93 141 2.0 2.0 0.00 0.00 0.00 61 1015.4
20260905192454 93 119 3.0 3.0 0.00 0.00 0.00 62 1015.5
20260905191950 93 14 1.0 2.0 0.00 0.00 0.00 61 1015.5
20260905191444 92 22 1.0 2.0 0.00 0.00 0.00 62 1015.6
20260905190943 92 329 3.0 8.0 0.00 0.00 0.00 62 1015.7
20260905190441 92 8 4.0 6.0 0.00 0.00 0.00 62 1016.1
20260905185940 91 8 1.0 5.0 0.00 0.00 0.00 66 1016.2
20260905185435 93 348 3.0 6.0 0.00 0.00 0.00 63 1016.0
20260905184933 93 62 4.0 5.0 0.00 0.00 0.00 64 1016.0
20260905184429 92 31 1.0 3.0 0.00 0.00 0.00 66 1016.2
20260905183928 93 319 4.0 6.0 0.00 0.00 0.00 63 1016.2
20260905183422 93 79 2.0 6.0 0.00 0.00 0.00 62 1016.2
20260905182917 93 317 1.0 6.0 0.00 0.00 0.00 61 1016.3
20260905182416 92 259 1.0 5.0 0.00 0.00 0.00 64 1016.4
20260905181912 91 342 5.0 6.0 0.00 0.00 0.00 62 1016.3
20260905181407 91 42 1.0 8.0 0.00 0.00 0.00 62 1016.2
20260905180905 91 259 1.0 5.0 0.00 0.00 0.00 62 1016.4
20260905180401 91 94 3.0 5.0 0.00 0.00 0.00 62 1016.3
20260905175855 92 281 3.0 9.0 0.00 0.00 0.00 60 1016.3
20260905175355 92 349 1.0 3.0 0.00 0.00 0.00 60 1016.5
20260905174850 92 350 5.0 9.0 0.00 0.00 0.00 60 1016.6
20260905174346 92 294 2.0 10.0 0.00 0.00 0.00 61 1016.5
20260905173841 93 13 6.0 11.0 0.00 0.00 0.00 58 1016.6
20260905173337 93 302 2.0 10.0 0.00 0.00 0.00 59 1016.6
20260905172832 93 257 2.0 5.0 0.00 0.00 0.00 58 1016.5
20260905172330 92 19 5.0 8.0 0.00 0.00 0.00 57 1016.2
20260905171826 92 20 8.0 13.0 0.00 0.00 0.00 57 1016.6
20260905171323 91 338 4.0 7.0 0.00 0.00 0.00 60 1016.3
20260905170819 91 323 4.0 11.0 0.00 0.00 0.00 59 1016.4